Location: Newark
(34.6000°S, 58.3833°W)
Time: 13:22:20
(UTC+00:00)

N. Korean satellite - Pass Details

Date: 28 October 2019
Orbit: 456 x 506 km, 97.2° (Epoch: 12 November)

Event Time Altitude Azimuth Distance (km) Brightness Sun altitude
Rises 08:02:10 0° 54° (NE) 2,601 10.7 -11.3°
Reaches altitude 10° 08:05:10 10° 82° (E) 1,721 10.3 -10.7°
Maximum altitude 08:06:58 13° 111° (ESE) 1,529 10.6 -10.4°
Drops below altitude 10° 08:08:46 10° 140° (SE) 1,724 10.5 -10.0°
Sets 08:11:46 0° 167° (SSE) 2,608 10.8 -9.5°
